www.pogodaiklimat.ru

Погода и климат >> Архив погоды >> Россия >> Хакасия >> Шира


ПОГОДА в Шире

  • Прогноз погоды в Шире
  • Монитор погоды в Шире

АРХИВ ПОГОДЫ в Шире

Время (UTC), дата Ветер
(напр.,м/с)
 
Видим.   Явления Облачность Т
(С)
Тd
(С)
f
(%)
Тe
(С)
Тes
(С)
Комфортность P
(гПа)
Po
(гПа)
Тmin
(С)
Tmax
(С)
R
(мм)
R24
(мм)
S
(см)
18 14.05 штиль 0 н/о {ливн. осадки} 9/8 600 м
[Cb cap Ac trans]
-1.3 -2.0 95 -3 -3 1014.4 956.0
21 14.05 штиль 0 н/о 3/3 1000 м
[Sc]
-4.0 -4.5 96 -5 -5 1013.6 954.7
00 15.05 СЗ 2 4000 м дымка 9/9 1000 м
[Sc]
-1.7 -2.0 98 -6 -6 1010.3 953.1 -4.3
03 15.05 СЗ 2 50 км в посл. час ливневой снег 9/9 600 м
[Cb cap]
+2.3 -1.3 77 -1 0 1012.2 954.7
06 15.05 СЗ 5 50 км {ливн. осадки} 9/9 600 м
[Cb cap]
+3.4 -0.4 76 -2 -1 1013.3 956.0
09 15.05 С 5 50 км {ливн. осадки} 8/8 600 м
[Cb cap]
+7.0 -5.0 42 +4 +5 1012.6 956.0
12 15.05 З 3
{12}
50 км {ливн. осадки} 9/9 600 м
[Cb cap]
+4.1 -1.6 66 +1 +1 1014.0 957.8 +7.6 0.4
15 15.05 СЗ 2 н/о 9/9 600 м
[Cb cap]
+2.4 -1.9 73 -1 -1 1019.2 961.3
18 15.05 СЗ 2 н/о 6/6 1000 м
[Sc]
+1.1 -3.0 74 -2 -2 1021.0 962.7
21 15.05 СЗ 2 н/о 9/9 600 м
[Cb cap]
+1.0 -2.6 77 -2 -2 1021.0 962.7
00 16.05 штиль 0 50 км 8/8 1000 м
[Sc]
+2.4 -2.0 73 +2 +2 1020.0 963.1 +0.4
03 16.05 СЗ 4 50 км 8/3 1000 м
[Sc Ac trans]
+6.9 -3.6 47 +4 +6 1021.1 964.0
06 16.05 СЗ 7-12
{12}
50 км 8/3 1500 м
[Cu med, cong Ac trans]
+7.4 -4.1 44 +3 +5 1019.5 963.6
09 16.05 СЗ 5
{12}
50 км 8/4 1000 м
[Sc Ci sp]
+9.2 -5.8 34 +7 +8 1020.7 964.0
12 16.05 З 2 50 км 8/6 1000 м
[Sc Ci sp]
+8.9 -7.8 30 +8 +9 1019.4 963.8 +9.6
15 16.05 штиль 0 н/о 8/6 1000 м
[Sc Ci sp]
+3.0 -1.9 70 +2 +2 1024.8 966.7
18 16.05 В 1 н/о 8/6 1000 м
[Sc Ci sp]
+2.0 -2.5 72 +1 +1 1025.0 966.7
21 16.05 штиль 0 н/о 3/3 1000 м
[Sc]
-0.7 -3.9 79 -2 -2 1025.6 966.7
00 17.05 штиль 0 50 км 6/6 1000 м
[Sc]
+1.4 -2.3 76 +1 +2 1023.2 966.0 -1.3
03 17.05 С 3 50 км 6 баллов +8.7 -7.1 32 +7 +10 1023.6 966.7
06 17.05 ЮВ 2
{12}
50 км 6/6 600 м
[Cb calv]
+8.8 -6.6 33 +8 +14 1023.6 966.7
09 17.05 СЗ 6-11
{11}
50 км 8/8 600 м
[Cb calv]
+7.5 -4.6 42 +4 +5 1023.9 966.7
12 17.05 Ю 3
{11}
50 км 6/6 600 м
[Cb cap]
+6.9 -2.2 52 +4 +5 1022.3 966.2 +10.8
15 17.05 В 1 н/о 6 баллов +2.3 -1.9 74 +1 +1 1026.3 968.0
18 17.05 В 2 н/о ясно 0.0 -2.7 82 -4 -4 1028.2 969.3
21 17.05 штиль 0 н/о ясно -0.2 -3.6 78 -1 -1 1028.3 969.3
00 18.05 ЮВ 1 50 км 9/0
[Ci sp]
+3.1 -1.9 70 +2 +4 1024.8 967.8 -2.2
03 18.05 Ю 3 50 км 9/0 2000 м
[Ac trans Ci sp]
+9.3 -4.3 38 +8 +8 1024.9 968.0
06 18.05 Ю 3 50 км 10 баллов +12.1 -7.3 25 +11 +11 1021.5 965.3
09 18.05 ЮЗ 5
{10}
50 км 9/8 1000 м
[Cu med, cong Ac trans]
+13.5 -9.7 19 +12 +13 1018.4 962.7
12 18.05 ЮЗ 3 50 км 8/0 2000 м
[Ac trans Ci sp]
+13.3 -7.9 22 +13 +14 1015.6 961.0 +14.1
15 18.05 В 1 50 км 8/0 2000 м
[Ac trans]
+7.1 -6.6 37 +7 +7 1018.2 961.3
18 18.05 ЮВ 1 н/о 6/0 2000 м
[Ac trans]
+3.8 -4.4 55 +3 +3 1017.5 960.0
21 18.05 ЮВ 1 н/о 4/0 2000 м
[Ac trans]
+2.1 -2.8 70 +1 +1 1017.9 960.0
00 19.05 ЮВ 2 50 км 8/0 2000 м
[Ac trans Ci sp]
+7.4 -2.2 51 +6 +7 1013.1 957.6 +1.0
03 19.05 ЮВ 3 50 км 6 баллов +16.8 -4.5 23 +17 +20 1012.0 957.3
06 19.05 ЮЗ 4 50 км 6/0
[Ci sp]
+23.0 -7.9 12 +21 +25 комфорт 1008.2 954.7
09 19.05 ЮЗ 6 50 км 7 баллов +22.9 -9.1 11 +21 +22 комфорт 1008.2 954.7
12 19.05 З 5
{13}
50 км 8/8 1000 м
[Sc]
+21.6 -5.0 16 +20 +21 1006.5 953.9 +24.2
15 19.05 штиль 0 50 км ясно +12.6 -2.5 35 +13 +13 1010.1 954.7
18 19.05 В 2 н/о ясно +9.5 -1.5 46 +8 +8 1012.1 956.0
21 19.05 ЮВ 1 50 км 6 баллов +9.5 -0.7 49 +9 +9 1010.7 954.7
00 20.05 ЮЗ 5 50 км 10/6 1000 м
[Sc Ac As]
+14.7 +4.8 51 +13 +13 1008.4 954.6 +8.1
03 20.05 ЮЗ 5 50 км 9 баллов +15.5 +6.5 55 +14 +15 1009.4 954.7
06 20.05 ЮЗ 6-10
{10}
50 км 6/3 1000 м
[Sc Ac trans]
+18.1 +5.4 43 +18 +21 1006.5 953.4
09 20.05 З 6 50 км 6 баллов +19.5 +4.8 38 +20 +21 1008.7 954.7
12 20.05 ЮЗ 4
{13}
50 км 8/8 600 м
[Cb cap]
+17.9 +2.8 36 +18 +18 1007.2 954.0 +20.2
15 20.05 Ю 4
{12}
50 км {ливн. осадки} 4/4 1000 м
[Sc]
+10.6 +6.9 78 +8 +8 1008.0 953.5
18 20.05 В 3 н/о 6 баллов +10.0 +6.3 78 +8 +8 1007.7 952.0
21 20.05 В 1 20 км слаб. ливневой дождь 9 баллов +9.8 +7.6 86 +9 +9 1006.3 950.7
00 21.05 Ю 3 20 км слаб. ливневой дождь 9/9 600 м
[Cb cap]
+10.9 +8.7 86 +9 +9 1000.1 946.1 +9.1 1
03 21.05 ЮЗ 6-11
{11}
50 км {ливн. осадки} 8/6 1000 м
[Sc Ac trans]
+15.3 +9.7 69 +14 +15 998.3 945.2
06 21.05 ЮЗ 7-14
{15}
50 км {ливн. осадки} 10/8 1000 м
[Sc Ac As]
+16.6 +7.1 53 +15 +16 999.5 946.5
09 21.05 З 8-11
{16}
50 км 10/3 1000 м
[Sc Ac As]
+17.0 +2.9 39 +16 +16 1002.1 948.0
12 21.05 СЗ 5
{14}
50 км 10/8 1000 м
[Sc Ac As]
+13.7 +3.7 51 +12 +12 1002.3 948.6 +17.4 2
15 21.05 Ю 2 50 км 9 баллов +11.4 +3.9 60 +11 +11 1006.0 950.7

 

Местоположение метеостанции Шира (Хакасия, Россия): широта 54.50 долгота 89.93 высота над уровнем моря 475 м.

В архиве по умолчанию представлена погода в Шире за последнюю неделю. Архивные данные за месяц целиком и за предыдущие месяцы, начиная с января 2011 года, Вы можете получить, выбрав интересующий диапазон дат из раскрывающегося списка и нажав кнопку "Ввод!".


*Определитесь, кто Вы:
робот инопланетянин человек

Внимание! Время в таблицах - всемирное. Для получения местного времени необходимо прибавить поправку, которая равна 7 ч.

Смотрите также архив погоды в соседних городах и на ближайших метеорологических станциях:

Погода в Коммунаре (Хакасия, Россия) (46 км)
Погода в Копьево-2 (Хакасия, Россия) (59 км)
Погода в Первомайском (Хакасия, Россия) (61 км)
Погода в Ненастной (Хакасия, Россия) (77 км)
Погода в Светлолобово (Красноярский край, Россия) (88 км)
Погода в Ужуре (Красноярский край, Россия) (89 км)
Погода в Уйбате (Хакасия, Россия) (91 км)
Погода в Лебяжьем (Красноярский край, Россия) (112 км)
Погода в Хакасской (Хакасия, Россия) (122 км)
Погода в Шарыпово (Красноярский край, Россия) (124 км)

Пояснения к столбцам:

Ветер - указаны скорость ветра в м/с - средняя за 10 мин, порывы в срок и между сроками (в фигурных скобках) и направление, откуда дует ветер: С - северный, СВ - северо-восточный, В - восточный, ЮВ - юго-восточный, Ю - южный, ЮЗ - юго-западный, З - западный, СЗ - северо-западный.
Видимость - горизонтальная дальность видимости в метрах или километрах. При видимости от 1 до 10 км при отсутствии осадков обычно наблюдается дымка, при ухудшении видимости до 1 км и менее - туман. В сухую погоду видимость может ухудшаться дымом, пылью или мглою.
Явления - указаны атмосферные явления, наблюдавшиеся в срок или в последний час перед сроком; фигурными скобками обозначены явления, наблюдавшиеся между сроками (за 1-3 часа до срока); квадратными скобками обозначены град или гололедные отложения с указанием их диаметра в мм.
Облачность - указаны через наклонную черту общая и нижняя облачность в баллах и высота нижней границы облаков в метрах; квадратными скобками обозначены формы облаков: Ci - перистые, Cs - перисто-слоистые, Cc - перисто-кучевые, Ac - высококучевые, As - высокослоистые, Sc - слоисто-кучевые, Ns - слоисто-дождевые, Cu - кучевые, Cb - кучево-дождевые. Подробнее классификацию облаков см. в Атласе облаков (PDF).
T - Температура воздуха - температура, измеренная на высоте 2 м над землей.
Td - Температура точки росы - температура, при понижении до которой содержащийся в воздухе водяной пар достигнет насыщения.
f - Относительная влажность воздуха - влажноcть воздуха, измеренная на высоте 2 м над землей.
Te - Эффективная температура - температура, которую ощущает одетый по сезону человек в тени. Характеристика душности погоды. При расчете учитывается влияние влажности воздуха и скорости ветра на теплоощущения человека.
Tes - Эффективная температура на солнце - температура, которую ощущает человек, с поправкой на солнечный нагрев. Характеристика знойности погоды. Зависит от высоты солнца над горизонтом, облачности и скорости ветра. Ночью, в пасмурную погоду, а также при ветре 12 м/с и более поправка равна нулю.
P - Атмосферное давление - приведенное к уровню моря атмосферное давление.
Po - Атмосферное давление - измеренное на уровне метеостанции атмосферное давление.
Tmin - Минимальная температура - минимум температуры воздуха на высоте 2 м над землей.
Tmax - Максимальная температура - максимум температуры воздуха на высоте 2 м над землей.
R - Количество осадков - Количество выпавших осадков за период времени, мм. При наведении курсора мыши на число - период времени, за который выпало указанное количество осадков.
R24 - Количество осадков - Количество выпавших осадков за 24 часа, мм.
S - Снежный покров - Высота снежного покрова, см. При наведении курсора мыши на число - состояние снежного покрова и степень покрытия местности в баллах.